Regional Weather Roundup
Issued by NWS Mt. Holly, NJ

Home | Current Version | Previous Version | Text Only | Print | Product List | Glossary On
Versions: 1 2 3 4 5 6 7 8 9 10 11 12 13 14 15 16 17 18 19 20 21 22 23 24 25 26 27 28 29 30 31 32 33 34 35 36 37 38 39 40 41 42 43 44 45 46 47 48 49 50
000
ASUS41 KPHI 301612
RWRPHI

REGIONAL WEATHER ROUNDUP
NATIONAL WEATHER SERVICE MOUNT HOLLY NJ
1200 PM EDT THU JUL 30 2015

NOTE:  "FAIR" INDICATES FEW OR NO CLOUDS BELOW 12,000 FEET WITH NO
SIGNIFICANT WEATHER AND/OR OBSTRUCTIONS TO VISIBILITY.

 * = STATION DOES NOT REPORT PRECIPITATION (E.G. RAIN, SNOW, ETC.)
        OR FOG.

NJZ015>026-301700-
SOUTHERN NEW JERSEY

CITY           SKY/WX    TMP DP  RH WIND       PRES   REMARKS
POMONA         MOSUNNY   85  74  69 S15G21    29.92F HX  92
RIO GRANDE*    MOSUNNY   86  73  66 S12       29.95S HX  93
MILLVILLE      MOSUNNY   85  75  72 SW10G18   29.92F HX  93
WRIGHTSTOWN    PTSUNNY   87  75  67 SW12G20   29.87S HX  97
MOUNT HOLLY    PTSUNNY   86  74  67 VRB7      29.89S HX  94
TRENTON        CLOUDY    87  74  64 SW12G20   29.89R HX  95

$$
NJZ001>014-301700-
NORTHERN NEW JERSEY

CITY           SKY/WX    TMP DP  RH WIND       PRES   REMARKS
SUSSEX         CLOUDY    81  73  76 VRB7      29.88S
ANDOVER*         N/A     80  74  81 SW9       29.90S
MORRISTOWN     CLOUDY    84  75  74 W9G15     29.89S HX  92
NEWARK         CLOUDY    86  75  69 S10       29.87F HX  95
TETERBORO      CLOUDY    83  73  72 S12G21    29.87S
CALDWELL       CLOUDY    82  73  74 SW3       29.88S
SOMERVILLE     CLOUDY    84  74  71 VRB5      29.87S HX  91
ALLAIRE*       PTSUNNY   86  72  62 SW8       29.90S HX  92
TOMS RIVER*      N/A     88  73  62 SW15G21   29.91S HX  96

$$
PAZ043-044-047-054-055-060>062-066>071-301700-
EASTERN PENNSYLVANIA

CITY           SKY/WX    TMP DP  RH WIND       PRES   REMARKS
PHILADELPHIA   CLOUDY    87  73  62 SW13G22   29.90S HX  94
NORTH PHILA    PTSUNNY   88  72  58 SW12      29.90S HX  94
BLUE BELL      PTSUNNY   86  77  74 SW7       29.89F HX  97
DOYLESTOWN     CLOUDY    82  74  76 SW6       29.89S
QUAKERTOWN*    CLOUDY    82  75  78 SW8       29.91F
POTTSTOWN      CLOUDY    82  75  79 S6        29.91F
LANCASTER      CLOUDY    84  75  74 S5        29.89F HX  92
COATESVILLE    CLOUDY    81  75  83 SW5       29.93S
READING        CLOUDY    85  74  69 SW10      29.88F HX  92
ALLENTOWN      PTSUNNY   85  75  72 SW10      29.89S HX  93
MOUNT POCONO     N/A    N/A N/A N/A MISG      29.96R
HAZLETON       CLOUDY    77  72  83 SW6       29.97S
WILKES BARRE   HVY RAIN  79  73  82 SW8       29.89S

$$
DEZALL-MDZ008-012-015-019-020-301700-
DELAWARE AND EASTERN MARYLAND

CITY           SKY/WX    TMP DP  RH WIND       PRES   REMARKS
WILMINGTON     CLOUDY    86  74  67 S14       29.91S HX  94
DOVER          MOSUNNY   87  75  66 S16       29.90F HX  97
GEORGETOWN     MOSUNNY   86  75  69 S14       29.94F HX  95
EASTON         MOSUNNY   90  73  58 SW14      29.96S HX  98
ABERDEEN       PTSUNNY   86  77  74 SW14      29.93S HX  97
PATUXENT       CLOUDY    85  73  67 SW10      29.93S HX  91
OCEAN CITY     SUNNY     85  74  69 S12G17    29.95F HX  92
WALLOPS ISLAND SUNNY     84  76  76 S13       29.96F HX  93
CAMBRIDGE      MOSUNNY   84  70  61 SW7       29.93S
SALISBURY      SUNNY     86  74  67 SW10      29.94F HX  94

$$
PAZ001-021-NYZ056-072-MDZ011-DCZ001-301700-
OTHER NEARBY LOCATIONS

CITY           SKY/WX    TMP DP  RH WIND       PRES   REMARKS
HARRISBURG     LGT RAIN  79  75  87 W10       29.90R FOG
STATE COLLEGE  MOSUNNY   79  68  69 W12       29.95R
WILLIAMSPORT   PTSUNNY   80  73  79 W8        29.88S
BINGHAMTON     CLOUDY    76  73  91 W12       29.90S
NEW YORK CITY  CLOUDY    83  72  69 SW6       29.91F
BALTIMORE      PTSUNNY   88  74  63 SW6       29.90F HX  96
WASHINGTON DC  PTSUNNY   89  76  65 S7        29.91F HX 100

$$



USA.gov is the U.S. government's official web portal to all federal, state and local government web resources and services.